TimeEDT,TemperatureF,Dew PointF,Humidity,Sea Level PressureIn,VisibilityMPH,Wind Direction,Wind SpeedMPH,Gust SpeedMPH,PrecipitationIn,Events,Conditions,WindDirDegrees,DateUTC
12:53 AM,73.9,70.0,87,29.85,10.0,Calm,Calm,-,N/A,,Clear,0,2013-07-23 04:53:00
1:53 AM,73.0,70.0,90,29.85,10.0,Calm,Calm,-,N/A,,Clear,0,2013-07-23 05:53:00
2:53 AM,72.0,70.0,93,29.86,9.0,Calm,Calm,-,N/A,,Clear,0,2013-07-23 06:53:00
3:53 AM,72.0,70.0,93,29.86,8.0,Calm,Calm,-,N/A,,Mostly Cloudy,0,2013-07-23 07:53:00
4:53 AM,71.1,69.1,93,29.85,7.0,Calm,Calm,-,N/A,,Clear,0,2013-07-23 08:53:00
5:45 AM,71.6,69.8,94,29.87,7.0,South,3.5,-,N/A,,Mostly Cloudy,190,2013-07-23 09:45:00
5:53 AM,73.0,71.1,93,29.85,7.0,South,3.5,-,N/A,,Overcast,190,2013-07-23 09:53:00
6:10 AM,73.4,71.6,94,29.86,7.0,SSW,4.6,-,N/A,,Overcast,210,2013-07-23 10:10:00
6:53 AM,73.9,72.0,93,29.84,4.0,Calm,Calm,-,N/A,,Overcast,0,2013-07-23 10:53:00
7:53 AM,75.0,72.0,90,29.83,4.0,SSW,5.8,-,N/A,,Overcast,210,2013-07-23 11:53:00
8:53 AM,75.0,73.0,94,29.82,4.0,Variable,4.6,-,N/A,,Overcast,0,2013-07-23 12:53:00
9:18 AM,75.2,71.6,89,29.84,4.0,SW,6.9,-,N/A,,Overcast,220,2013-07-23 13:18:00
9:53 AM,75.9,73.0,91,29.84,4.0,SW,3.5,-,N/A,,Overcast,220,2013-07-23 13:53:00
10:12 AM,77.0,73.4,89,29.85,5.0,SW,4.6,-,N/A,,Overcast,230,2013-07-23 14:12:00
10:53 AM,78.1,73.0,84,29.85,5.0,SW,5.8,-,N/A,,Haze,230,2013-07-23 14:53:00
11:37 AM,80.6,73.4,79,29.87,5.0,WSW,5.8,-,N/A,,Haze,240,2013-07-23 15:37:00
11:53 AM,81.0,73.0,77,29.85,5.0,SW,9.2,-,N/A,,Haze,230,2013-07-23 15:53:00
12:46 PM,82.4,73.4,74,29.85,8.0,SW,6.9,-,N/A,,Scattered Clouds,230,2013-07-23 16:46:00
12:53 PM,82.9,73.0,72,29.83,8.0,Variable,4.6,-,N/A,,Scattered Clouds,0,2013-07-23 16:53:00
1:53 PM,84.9,73.9,69,29.82,8.0,WSW,9.2,-,N/A,,Partly Cloudy,250,2013-07-23 17:53:00
2:53 PM,86.0,73.0,65,29.78,8.0,Variable,5.8,-,N/A,,Mostly Cloudy,0,2013-07-23 18:53:00
3:53 PM,87.1,72.0,61,29.79,10.0,WSW,6.9,-,N/A,,Scattered Clouds,240,2013-07-23 19:53:00
4:53 PM,89.1,72.0,57,29.77,9.0,WSW,9.2,-,N/A,,Partly Cloudy,250,2013-07-23 20:53:00
5:53 PM,88.0,72.0,59,29.75,10.0,West,9.2,-,N/A,,Mostly Cloudy,270,2013-07-23 21:53:00
6:53 PM,86.0,73.0,65,29.75,9.0,WSW,8.1,-,N/A,,Clear,240,2013-07-23 22:53:00
7:53 PM,84.9,73.0,67,29.74,9.0,SW,6.9,-,N/A,,Partly Cloudy,230,2013-07-23 23:53:00
8:53 PM,82.9,69.1,63,29.76,10.0,WSW,5.8,-,N/A,,Partly Cloudy,240,2013-07-24 00:53:00
9:10 PM,82.4,69.8,66,29.77,10.0,West,9.2,-,N/A,Thunderstorm,Clear,270,2013-07-24 01:10:00
9:40 PM,82.4,69.8,66,29.80,10.0,West,8.1,-,N/A,,Clear,280,2013-07-24 01:40:00
9:53 PM,81.0,70.0,69,29.78,10.0,West,6.9,-,N/A,,Scattered Clouds,280,2013-07-24 01:53:00
10:53 PM,80.1,70.0,71,29.81,10.0,Calm,Calm,-,N/A,,Clear,0,2013-07-24 02:53:00
11:53 PM,79.0,70.0,74,29.82,10.0,WNW,8.1,-,N/A,,Partly Cloudy,300,2013-07-24 03:53:00